Tracking 20715 objects as of 27-May-2020
HD Live streaming from Space Station
objects crossing your sky now

IRIDIUM 33 DEB

Track IRIDIUM 33 DEB now!
10-day predictions


NORAD ID: 35616
Int'l Code: 1997-051QN
Perigee: 718.7 km
Apogee: 744.2 km
Inclination: 86.4 °
Period: 99.3 minutes
Semi major axis: 7102 km
RCS: 0.0074 m2 (small)
Launch date: September 14, 1997
Source: United States (US)
Launch site: TYURATAM MISSILE AND SPACE COMPLEX (TTMTR)

Note: This is SATELLITE DEBRIS
aabbcc
Your satellite tracking list
Your tracking list is empty




NASA's NSSDC Master Catalog

Two Line Element Set (TLE):
1 35616U 97051QN  20147.71817712  .00000638  00000-0  15791-3 0  9994
2 35616  86.3660 154.9628 0017987 215.5412 144.4596 14.50406066582605
Source of the keplerian elements: AFSPC